IZ3VCM Weather Reports


Display with metric or nautical units.
time (UTC)temp
F
wind
direction
speed
MPH
gust
MPH
rain 1hr
in
rain 24hr
in
rain mn
in
humidity
%
barometer
mb
20260906221506 68 0 0.0 0.0 0.00 0.00 0.00 83 1021.9
20260906220008 69 0 0.0 0.0 0.00 0.00 0.00 82 1021.8
20260906214505 69 0 0.0 0.0 0.00 0.00 0.00 82 1022.0
20260906213008 69 0 0.0 0.0 0.00 0.00 0.00 80 1022.0
20260906211506 70 0 0.0 0.0 0.00 0.00 0.00 79 1021.9
20260906210008 70 0 0.0 0.0 0.00 0.00 0.00 78 1021.9
20260906204505 71 0 0.0 0.0 0.00 0.00 0.00 75 1021.9
20260906203010 71 0 0.0 0.0 0.00 0.00 0.00 75 1021.8
20260906201507 72 0 0.0 0.0 0.00 0.00 0.00 73 1021.8
20260906200008 73 0 0.0 0.0 0.00 0.00 0.00 72 1021.8
20260906194505 74 0 0.0 0.0 0.00 0.00 0.00 71 1021.7
20260906193009 74 0 0.0 0.0 0.00 0.00 0.00 70 1021.5
20260906191505 75 0 0.0 0.0 0.00 0.00 0.00 70 1021.6
20260906190007 75 111 1.0 2.0 0.00 0.00 0.00 69 1021.3
20260906184506 76 0 0.0 0.0 0.00 0.00 0.00 68 1021.1
20260906183008 77 0 0.0 0.0 0.00 0.00 0.00 67 1021.0
20260906181505 78 0 0.0 0.0 0.00 0.00 0.00 65 1021.0
20260906180007 78 0 0.0 0.0 0.00 0.00 0.00 64 1020.8
20260906174505 80 0 0.0 0.0 0.00 0.00 0.00 63 1020.6
20260906173008 82 0 0.0 0.0 0.00 0.00 0.00 60 1020.6
20260906171506 85 111 0.0 1.0 0.00 0.00 0.00 57 1020.6
20260906170007 87 111 2.0 3.0 0.00 0.00 0.00 58 1020.5
20260906164505 88 105 3.0 6.0 0.00 0.00 0.00 59 1020.5
20260906163008 89 98 1.0 3.0 0.00 0.00 0.00 58 1020.4
20260906161505 90 100 3.0 4.0 0.00 0.00 0.00 57 1020.3
20260906160007 90 102 3.0 4.0 0.00 0.00 0.00 56 1020.3
20260906154505 91 111 4.0 4.0 0.00 0.00 0.00 56 1020.4
20260906153008 91 112 2.0 7.0 0.00 0.00 0.00 55 1020.4
20260906151506 91 119 4.0 7.0 0.00 0.00 0.00 55 1020.5
20260906150007 92 68 1.0 2.0 0.00 0.00 0.00 55 1020.5
20260906144505 92 103 3.0 5.0 0.00 0.00 0.00 55 1020.5
20260906143008 92 79 4.0 6.0 0.00 0.00 0.00 56 1020.6
20260906141508 92 112 5.0 7.0 0.00 0.00 0.00 56 1020.7
20260906140007 92 89 3.0 4.0 0.00 0.00 0.00 55 1020.8
20260906134505 92 64 2.0 4.0 0.00 0.00 0.00 55 1021.0
20260906133008 93 112 1.0 5.0 0.00 0.00 0.00 54 1020.8
20260906131505 92 113 5.0 6.0 0.00 0.00 0.00 55 1020.8
20260906130008 92 90 1.0 2.0 0.00 0.00 0.00 54 1020.8
20260906124505 92 85 1.0 2.0 0.00 0.00 0.00 54 1020.9
20260906123007 92 38 2.0 4.0 0.00 0.00 0.00 55 1021.1
20260906121505 92 86 3.0 4.0 0.00 0.00 0.00 56 1021.1
20260906120007 92 107 3.0 7.0 0.00 0.00 0.00 55 1021.0
20260906114505 91 107 2.0 4.0 0.00 0.00 0.00 55 1021.1
20260906113008 91 45 1.0 5.0 0.00 0.00 0.00 56 1021.2
20260906111505 91 84 3.0 6.0 0.00 0.00 0.00 56 1021.2
20260906110007 91 83 2.0 4.0 0.00 0.00 0.00 55 1021.3
20260906104505 90 83 3.0 7.0 0.00 0.00 0.00 58 1021.3
20260906103007 90 112 4.0 6.0 0.00 0.00 0.00 58 1021.4
20260906101506 90 100 3.0 5.0 0.00 0.00 0.00 58 1021.6
20260906100006 90 57 1.0 4.0 0.00 0.00 0.00 59 1021.5
20260906094505 89 38 4.0 6.0 0.00 0.00 0.00 62 1021.6
20260906093007 88 53 3.0 7.0 0.00 0.00 0.00 61 1021.7
20260906091505 87 79 4.0 5.0 0.00 0.00 0.00 61 1021.7
20260906090007 88 38 2.0 4.0 0.00 0.00 0.00 61 1021.8
20260906084507 86 82 4.0 7.0 0.00 0.00 0.00 61 1021.7
20260906083007 85 45 6.0 7.0 0.00 0.00 0.00 61 1021.8
20260906081504 84 48 5.0 6.0 0.00 0.00 0.00 62 1021.7
20260906080007 84 44 4.0 6.0 0.00 0.00 0.00 62 1021.7
20260906074504 82 45 3.0 4.0 0.00 0.00 0.00 63 1021.6
20260906073006 82 35 5.0 6.0 0.00 0.00 0.00 64 1021.3
20260906071505 80 43 4.0 7.0 0.00 0.00 0.00 66 1021.3
20260906070006 79 39 3.0 4.0 0.00 0.00 0.00 69 1021.2
20260906064505 77 45 1.0 2.0 0.00 0.00 0.00 74 1021.2
20260906063007 74 23 0.0 4.0 0.00 0.00 0.00 76 1021.0
20260906061504 74 0 0.0 0.0 0.00 0.00 0.00 76 1020.8
20260906060006 73 14 2.0 4.0 0.00 0.00 0.00 77 1020.5
20260906054504 73 0 0.0 0.0 0.00 0.00 0.00 78 1020.5
20260906053007 72 0 0.0 0.0 0.00 0.00 0.00 81 1020.3